Terminal Aerodrome Forecast
Issued by NWS

Home | Current Version | Previous Version | Graphics & Text | Print | Product List | Glossary On
Versions: 1 2 3 4 5 6 7 8 9 10 11 12 13 14 15 16 17 18 19 20 21 22 23 24 25 26
000
FTUS41 KCLE 051100 RRA
TAFFDY
TAF
KFDY 051141Z 0512/0612 VRB05KT 4SM -SHRA BKN045 OVC070
      TEMPO 0512/0513 2SM -SHRA SCT025 BKN040
     FM051300 VRB06KT P6SM SCT050 OVC080
     FM052300 07007KT P6SM SCT008 BKN120
     FM060400 07005KT 4SM BR SCT008 BKN200=

USA.gov is the U.S. government's official web portal to all federal, state and local government web resources and services.